• Join FlightAware (Why Join?)
  • Login
  • US Flag 
04:55AM EDT


 

Airport Tracker/Info


-or-


 

Live Flight TrackerFlight Track Log ✈ UAL3732 ✈ 22-Apr-2013 ✈ KIND - KORD

Flight Track Log - Related Links

Times and Time Zones

All times are in EDT time to prevent confusion due to time zone crossing. See the UAL3732 flight status page for this flight to view local times or setup timezone preferences in your user account.

Time Position Orientation Groundspeed Altitude Reporting Facility
EDT Latitude Longitude Course Direction KTS MPH feet Rate Location/Type
11:05AM 39.7167 -86.2833 46° Northeast 158 182 1,500  Level Indianapolis TRACON
11:06AM 39.7667 -86.2333 38° Northeast 204 235 3,600 1,980 Climbing Indianapolis TRACON
11:07AM 39.8333 -86.1833 30° Northeast 269 310 5,900 1,140 Climbing Indianapolis TRACON
11:08AM 39.9000 -86.1833 360° North 281 323 6,100 180 Climbing Indianapolis TRACON
11:09AM 40.0256 -86.2507 42° Northeast  Level FlightAware Approximate
11:10AM 40.0860 -86.1798 46° Northeast  Level FlightAware Approximate
11:10AM 39.9833 -86.2000 351° North 267 307 6,300  Level Indianapolis TRACON
11:11AM 40.1429 -86.1040 46° Northeast  Level FlightAware Approximate
11:11AM 40.0453 -86.1769 16° North 263 303 8,900  Level Chicago Center
11:12AM 40.1211 -86.1325 24° Northeast 293 337 10,500 1,860 Climbing Chicago Center
11:13AM 40.1961 -86.0564 38° Northeast 330 380 12,800 1,260 Climbing Chicago Center
11:14AM 40.2728 -85.9592 44° Northeast 369 425 13,100 1,440 Climbing Chicago Center
11:15AM 40.3775 -85.9358 10° North 390 449 15,800 2,280 Climbing Chicago Center
11:16AM 40.4828 -85.9428 357° North 381 438 17,800 1,860 Climbing Chicago Center
11:17AM 40.5781 -86.0503 319° Northwest 385 443 19,700 1,020 Climbing Chicago Center
11:18AM 40.6506 -86.1586 311° West 392 451 20,000 120 Climbing Chicago Center
11:19AM 40.7244 -86.2661 312° West 394 453 20,000  Level Chicago Center
11:20AM 40.7981 -86.3717 313° West 392 451 20,000 -300 Level Chicago Center
11:21AM 40.8722 -86.4775 313° West 393 452 19,400 -900 Descending Chicago Center
11:22AM 40.9447 -86.5831 312° West 387 445 18,200 -1,080 Descending Chicago Center
11:23AM 41.0158 -86.6858 313° West 381 438 17,300 -1,260 Descending Chicago Center
11:24AM 41.0956 -86.8014 312° West 380 437 15,700 -1,500 Descending Chicago Center
11:25AM 41.1656 -86.9042 312° West 378 435 14,300 -1,380 Descending Chicago Center
11:26AM 41.2342 -87.0033 313° West 370 426 12,900 -1,380 Descending Chicago Center
11:27AM 41.3025 -87.1025 313° West 366 421 11,500 -960 Descending Chicago Center
11:28AM 41.3672 -87.1978 312° West 354 407 11,000 -300 Descending Chicago Center
11:29AM 41.4542 -87.3022 318° Northwest 353 406 11,000 -300 Level Chicago Center
11:30AM 41.5272 -87.3875 319° Northwest 352 405 10,500 -540 Descending Chicago Center
11:31AM 41.5986 -87.4647 321° Northwest 336 387 10,000 -1,140 Descending Chicago Center
11:32AM 41.6589 -87.5308 321° Northwest 288 331 8,200 -1,440 Descending Chicago Center
11:33AM 41.7186 -87.5989 320° Northwest 286 329 7,100 -600 Descending Chicago Center
11:34AM 41.7892 -87.6778 320° Northwest 281 323 7,000 -60 Descending Chicago Center
11:35AM 41.8456 -87.7456 318° Northwest 277 319 7,000  Level Chicago Center
11:36AM 41.8833 -87.8333 300° West 278 320 7,000  Level Chicago TRACON
11:37AM 41.8833 -87.9333 270° West 279 321 7,000 -120 Level Chicago TRACON
11:38AM 41.8833 -88.0333 270° West 248 285 6,800 -960 Descending Chicago TRACON
11:39AM 41.8836 -88.1292 270° West 234 269 5,000 -1,320 Descending Chicago Center
11:40AM 41.8833 -88.2025 270° West 218 251 4,100 -540 Descending Chicago Center
11:41AM 41.9250 -88.2325 332° Northwest 212 244 4,000 -60 Descending Chicago Center
11:42AM 41.9678 -88.2067 24° Northeast 207 238 4,000 -120 Level Chicago Center
11:43AM 41.9681 -88.1331 90° East 202 232 3,800 -660 Descending Chicago Center
11:44AM 41.9667 -88.0667 92° East 195 224 2,800 -1,260 Descending Chicago TRACON